Regional Weather Roundup
Issued by NWS Albany, NY

Home | Current Version | Previous Version | Graphics & Text | Print | Product List | Glossary Off
Versions: 1 2 3 4 5 6 7 8 9 10 11 12 13 14 15 16 17 18 19 20 21 22 23 24 25 26 27 28 29 30 31 32 33 34 35 36 37 38 39 40 41 42 43 44 45 46 47 48 49 50

000
ASUS41 KALY 181610
RWRALY

NEW YORK STATE HOURLY WEATHER ROUNDUP
NATIONAL WEATHER SERVICE ALBANY NY
1200 PM EDT FRI AUG 18 2017

NOTE: "FAIR" INDICATES FEW OR NO CLOUDS BELOW 12,000 FEET WITH NO
SIGNIFICANT WEATHER AND/OR NO OBSTRUCTIONS TO VISIBILITY.

NYZ032-033-038>043-046>054-057>066-NYZ062>081-082-084-181700-
EAST


CITY           SKY/WX    TMP DP  RH WIND       PRES   REMARKS
ALBANY         LGT RAIN  74  70  87 S12G20    29.83R FOG
GLENS FALLS    CLOUDY    69  67  93 CALM      29.82S FOG
POUGHKEEPSIE   CLOUDY    76  71  85 S6        29.84F
MONTGOMERY     CLOUDY    77  72  84 S6        29.86S
WHITE PLAINS   DRIZZLE   76  74  93 VRB5      29.87F FOG
ISLIP          CLOUDY    78  76  93 SW14G22   29.88S
NEW YORK CITY  CLOUDY    79  77  94 S8        29.86F
CENTRAL PARK   CLOUDY    77  76  96 VRB5      29.89F FOG
$$

NYZ005>009-017-018-044>046-055-056-181700-
CENTRAL


CITY           SKY/WX    TMP DP  RH WIND       PRES   REMARKS
FULTON         SUNNY     84  70  62 SW13      29.76S
SYRACUSE       CLOUDY    82  70  66 SW12      29.76S
ROME           LGT RAIN  73  69  87 N3G20     29.78S FOG
ELMIRA         CLOUDY    79  73  82 SW10      29.81S
BINGHAMTON     LGT RAIN  72  70  93 SW5       29.86S
MONTICELLO     CLOUDY    71  70  96 S7        29.90S FOG
$$

NYZ026>034-041>043-087-181700-
NORTH


CITY           SKY/WX    TMP DP  RH WIND       PRES   REMARKS
WATERTOWN      PTSUNNY   79  72  79 SW15G22   29.74S
FORT DRUM      NOT AVBL
OGDENSBURG     FAIR      83  72  70 SW9       29.71F
MASSENA        PTSUNNY   75  72  90 NE7       29.72F
SARANAC LAKE   CLOUDY    75  71  87 SW8G17    29.80S
PLATTSBURGH    MOSUNNY   74  67  78 SE16      29.76F
$$

NYZ001>004-010>016-019>021-085-181700-
WEST


CITY           SKY/WX    TMP DP  RH WIND       PRES   REMARKS
NIAGARA FALLS  PTSUNNY   80  68  66 SW20G28   29.73S
BUFFALO        SUNNY     81  67  62 SW21G32   29.75S
DUNKIRK        MOSUNNY   80  68  66 W10G20    29.77S
JAMESTOWN      MOSUNNY   77  67  71 SW16      29.83F
WELLSVILLE     CLOUDY    76  65  68 W7        29.88R
ROCHESTER      MOSUNNY   82  67  60 SW10      29.76S
PENN YAN       CLOUDY    81  68  64 S6        29.80S
$$

             KEY
       WCI = WIND CHILL INDEX
       VSB = VISIBILITY
       HX  = HEAT INDEX
$$



USA.gov is the U.S. government's official web portal to all federal, state and local government web resources and services.